User: anonymous   Login
Location: Unspecified
(0.0000°N, 0.0000°E)
Time: 10:38:29
(UTC+02:00)
Language:

Cosmos 1943 Rocket - Orbit

View from above orbital plane
View from above orbital plane
View from above satellite
View from above satellite

Ground track
Ground track

The orbit data is extracted from the following two-line orbital elements,

1 19120U 88039B   14296.11519170  .00000137  00000-0  88333-4 0  1899
2 19120 071.0164 210.2527 0023605 236.4847 220.3875 14.19049220369055
Epoch (UTC): 23 October 2014 02:45:52
Eccentricity: 0.0023605
inclination: 71.0164°
perigee height: 811 km
apogee height: 845 km
right ascension of ascending node: 210.2527°
argument of perigee: 236.4847°
revolutions per day: 14.19049220
mean anomaly at epoch: 220.3875°
orbit number at epoch: 36905

The dashed part of the orbit path shows where the satellite is in the earth's shadow,  

DLR